FW5461 Weather Reports


Display with metric or nautical units.
time (UTC)temp
F
wind
direction
speed
MPH
gust
MPH
rain 1hr
in
rain 24hr
in
rain mn
in
humidity
%
barometer
mb
20260510174534 70 145 2.0 14.0 0.00 0.20 0.00 63 1013.4
20260510174036 70 132 3.0 14.0 0.00 0.20 0.00 64 1013.5
20260510173535 70 186 3.0 10.0 0.00 0.20 0.00 65 1013.5
20260510173032 69 176 3.0 13.0 0.00 0.20 0.00 66 1013.5
20260510172534 68 360 3.0 13.0 0.00 0.20 0.00 66 1013.6
20260510172033 68 360 7.0 14.0 0.00 0.20 0.00 65 1013.7
20260510171532 68 360 6.0 14.0 0.00 0.20 0.00 66 1013.6
20260510171031 68 360 5.0 13.0 0.00 0.20 0.00 65 1013.7
20260510170531 69 360 6.0 14.0 0.00 0.20 0.00 63 1013.7
20260510170031 70 131 7.0 14.0 0.00 0.20 0.00 62 1013.8
20260510165530 70 156 4.0 12.0 0.00 0.21 0.00 63 1013.7
20260510165028 70 284 5.0 13.0 0.00 0.21 0.00 64 1013.9
20260510164528 70 81 6.0 13.0 0.00 0.21 0.00 64 1013.9
20260510164027 69 142 3.0 13.0 0.00 0.21 0.00 65 1014.0
20260510163528 69 92 7.0 13.0 0.00 0.21 0.00 64 1014.0
20260510163027 69 96 6.0 11.0 0.00 0.21 0.00 64 1014.0
20260510162526 69 186 4.0 11.0 0.00 0.21 0.00 65 1014.1
20260510162026 69 141 6.0 12.0 0.00 0.21 0.00 66 1014.2
20260510161526 69 146 6.0 12.0 0.00 0.21 0.00 67 1014.2
20260510161123 68 186 4.0 11.0 0.00 0.21 0.00 67 1014.3
20260510160523 68 153 4.0 10.0 0.00 0.21 0.00 69 1014.3
20260510160031 67 119 5.0 11.0 0.00 0.21 0.00 69 1014.4
20260510155518 66 145 6.0 11.0 0.00 0.22 0.00 70 1014.4
20260510155017 65 42 4.0 9.0 0.00 0.22 0.00 72 1014.5
20260510154522 65 63 2.0 11.0 0.00 0.22 0.00 72 1014.6
20260510154017 64 134 2.0 12.0 0.00 0.22 0.00 71 1014.6
20260510153516 65 117 5.0 12.0 0.00 0.22 0.00 70 1014.7
20260510153015 65 76 5.0 10.0 0.00 0.22 0.00 72 1014.7
20260510152515 65 195 5.0 11.0 0.00 0.22 0.00 72 1014.6
20260510152014 65 163 2.0 11.0 0.00 0.22 0.00 73 1014.7
20260510151522 64 167 4.0 9.0 0.00 0.22 0.00 75 1014.7
20260510151012 63 205 2.0 12.0 0.00 0.22 0.00 76 1014.7
20260510150509 63 165 7.0 12.0 0.00 0.22 0.00 76 1014.8
20260510150009 62 190 8.0 11.0 0.00 0.22 0.00 77 1014.8
20260510145506 62 111 4.0 11.0 0.00 0.23 0.00 80 1014.7
20260510145005 61 157 3.0 11.0 0.00 0.23 0.00 81 1014.8
20260510144504 60 178 5.0 8.0 0.00 0.23 0.00 82 1014.8
20260510144003 60 117 4.0 9.0 0.00 0.23 0.00 84 1014.8
20260510143502 59 199 4.0 9.0 0.00 0.23 0.00 86 1014.8
20260510143100 59 180 4.0 9.0 0.00 0.23 0.00 87 1015.0
20260510142559 58 189 4.0 10.0 0.00 0.23 0.00 88 1015.0
20260510142057 58 132 4.0 10.0 0.00 0.23 0.00 90 1014.9
20260510141556 57 137 4.0 8.0 0.00 0.23 0.00 91 1015.0
20260510141055 56 196 2.0 8.0 0.00 0.23 0.00 91 1015.0
20260510140552 56 104 2.0 7.0 0.00 0.23 0.00 92 1015.0
20260510140051 55 131 2.0 7.0 0.00 0.23 0.00 92 1015.0
20260510135550 55 104 2.0 7.0 0.00 0.24 0.00 92 1015.0
20260510135050 55 119 2.0 6.0 0.00 0.24 0.00 93 1015.0
20260510134557 55 132 2.0 6.0 0.00 0.24 0.00 93 1014.9
20260510134049 54 155 1.0 7.0 0.00 0.24 0.00 93 1015.0
20260510133548 54 132 2.0 7.0 0.00 0.24 0.00 93 1014.9
20260510133049 54 146 2.0 7.0 0.00 0.24 0.00 94 1015.0
20260510132548 54 144 3.0 7.0 0.00 0.24 0.00 94 1015.0
20260510132048 54 137 2.0 6.0 0.00 0.24 0.00 94 1015.0
20260510131547 54 160 1.0 7.0 0.00 0.24 0.00 94 1015.0
20260510131046 54 153 2.0 7.0 0.00 0.24 0.00 94 1015.0
20260510130546 54 148 2.0 6.0 0.00 0.24 0.00 94 1015.0
20260510130045 54 138 1.0 4.0 0.00 0.24 0.00 94 1014.9
20260510125545 54 144 1.0 4.0 0.00 0.25 0.00 94 1014.9
20260510125045 54 144 2.0 4.0 0.00 0.25 0.00 94 1014.8
20260510124545 54 143 1.0 3.0 0.00 0.25 0.00 95 1014.7
20260510124044 54 142 1.0 3.0 0.00 0.25 0.00 95 1014.7
20260510123543 54 142 0.0 3.0 0.00 0.25 0.00 95 1014.7
20260510123045 54 140 1.0 3.0 0.00 0.25 0.00 95 1014.7
20260510122542 53 140 1.0 3.0 0.00 0.25 0.00 95 1014.7
20260510122041 53 139 1.0 3.0 0.00 0.25 0.00 95 1014.7
20260510121542 53 139 1.0 3.0 0.00 0.25 0.00 95 1014.8
20260510121039 53 174 1.0 4.0 0.00 0.25 0.00 95 1014.8
20260510120538 53 175 1.0 4.0 0.00 0.25 0.00 95 1014.9
20260510120037 52 176 1.0 3.0 0.00 0.25 0.00 95 1014.8
20260510115536 52 177 0.0 3.0 0.00 0.26 0.00 95 1014.8
20260510115035 52 177 1.0 3.0 0.00 0.26 0.00 95 1014.8
20260510114559 52 178 0.0 2.0 0.00 0.26 0.00 95 1014.7
20260510114034 52 178 1.0 2.0 0.00 0.26 0.00 95 1014.7
20260510113531 52 178 0.0 2.0 0.00 0.26 0.00 95 1014.7
20260510113042 51 360 0.0 2.0 0.00 0.26 0.00 95 1014.6
20260510112529 51 194 1.0 2.0 0.00 0.26 0.00 94 1014.8
20260510112028 51 194 0.0 3.0 0.00 0.26 0.00 94 1014.8
20260510111532 51 195 1.0 3.0 0.00 0.26 0.00 94 1014.7
20260510111026 51 194 1.0 3.0 0.00 0.26 0.00 94 1014.6
20260510110528 51 194 0.0 3.0 0.00 0.26 0.00 94 1014.6
20260510110033 51 196 0.0 3.0 0.00 0.26 0.00 94 1014.5
20260510105522 51 193 1.0 3.0 0.00 0.30 0.00 94 1014.4
20260510105021 51 194 0.0 3.0 0.00 0.30 0.00 94 1014.5
20260510104519 50 194 0.0 5.0 0.00 0.30 0.00 94 1014.4
20260510104018 50 204 2.0 5.0 0.00 0.30 0.00 94 1014.4
20260510103516 50 198 1.0 3.0 0.00 0.30 0.00 94 1014.3
20260510103016 50 198 1.0 3.0 0.00 0.30 0.00 94 1014.3
20260510102515 50 198 0.0 2.0 0.00 0.30 0.00 94 1014.3
20260510102016 50 200 0.0 3.0 0.00 0.30 0.00 94 1014.2
20260510101512 50 198 0.0 3.0 0.00 0.30 0.00 94 1014.1
20260510101011 50 194 1.0 3.0 0.00 0.30 0.00 94 1014.2
20260510100511 50 188 0.0 2.0 0.00 0.30 0.00 94 1014.2
20260510100010 50 190 0.0 3.0 0.00 0.30 0.00 94 1013.9
20260510095509 50 192 1.0 3.0 0.00 0.35 0.00 94 1013.9
20260510095008 50 178 1.0 4.0 0.00 0.35 0.00 94 1013.6
20260510094508 50 173 1.0 4.0 0.00 0.35 0.00 94 1013.3
20260510094007 50 174 1.0 5.0 0.00 0.35 0.00 94 1013.3
20260510093512 50 182 1.0 5.0 0.00 0.35 0.00 94 1013.5
20260510093007 50 185 2.0 5.0 0.00 0.35 0.00 94 1013.5
20260510092507 50 183 2.0 4.0 0.00 0.35 0.00 94 1013.4
20260510092009 50 205 0.0 3.0 0.00 0.35 0.00 94 1013.7
20260510091506 50 206 0.0 4.0 0.00 0.35 0.00 94 1013.7
20260510091006 50 205 1.0 4.0 0.00 0.35 0.00 93 1013.9
20260510090505 50 205 1.0 4.0 0.00 0.35 0.00 94 1013.7
20260510090006 50 206 0.0 1.0 0.00 0.35 0.00 94 1013.5
20260510085505 50 205 0.0 0.0 0.00 0.36 0.00 94 1013.6
20260510085008 50 205 0.0 0.0 0.00 0.36 0.00 94 1013.8
20260510084506 50 205 0.0 0.0 0.00 0.36 0.00 94 1013.8
20260510084004 50 205 0.0 0.0 0.00 0.36 0.00 94 1013.9
20260510083504 50 205 0.0 0.0 0.00 0.36 0.00 94 1014.1
20260510083013 50 206 0.0 0.0 0.00 0.36 0.00 94 1014.0
20260510082606 50 205 0.0 0.0 0.00 0.36 0.00 94 1014.1
20260510082003 50 360 0.0 0.0 0.00 0.36 0.00 93 1013.9
20260510081502 50 205 0.0 2.0 0.00 0.36 0.00 93 1014.0
20260510081002 50 206 0.0 2.0 0.00 0.36 0.00 93 1014.1
20260510080601 50 206 0.0 2.0 0.00 0.36 0.00 93 1014.0
20260510080001 50 205 0.0 1.0 0.00 0.36 0.00 93 1014.1
20260510075501 49 205 0.0 1.0 0.00 0.36 0.00 93 1014.1
20260510075102 50 205 0.0 1.0 0.00 0.36 0.00 93 1014.1
20260510074607 50 205 0.0 1.0 0.00 0.36 0.00 93 1014.1
20260510074100 50 206 0.0 1.0 0.00 0.36 0.00 93 1014.1
20260510073559 50 205 0.0 0.0 0.00 0.36 0.00 93 1013.9
20260510073100 49 205 0.0 0.0 0.00 0.36 0.00 93 1013.7
20260510072559 49 205 0.0 2.0 0.00 0.36 0.00 93 1013.9
20260510072100 49 205 0.0 2.0 0.00 0.36 0.00 93 1013.8
20260510071603 50 204 1.0 2.0 0.00 0.36 0.00 93 1013.7
20260510071058 49 204 0.0 2.0 0.00 0.36 0.00 93 1013.7
20260510070557 49 205 0.0 2.0 0.00 0.36 0.00 93 1013.6
20260510070109 49 205 0.0 0.0 0.00 0.36 0.00 93 1013.5
20260510065557 49 204 0.0 3.0 0.00 0.36 0.00 93 1013.5
20260510065058 49 204 0.0 3.0 0.00 0.36 0.00 93 1013.7
20260510064602 49 205 1.0 3.0 0.00 0.36 0.00 93 1013.7
20260510064057 49 205 1.0 2.0 0.00 0.36 0.00 93 1013.8
20260510063557 49 205 0.0 1.0 0.00 0.36 0.00 93 1013.7
20260510063101 49 205 0.0 2.0 0.00 0.36 0.00 93 1013.7
20260510062556 49 205 1.0 2.0 0.00 0.36 0.00 93 1013.7
20260510062056 49 204 0.0 0.0 0.00 0.36 0.00 93 1013.6
20260510061557 49 204 0.0 2.0 0.00 0.36 0.00 93 1013.6
20260510061056 49 205 0.0 3.0 0.00 0.36 0.00 93 1013.5
20260510060556 49 205 1.0 3.0 0.00 0.36 0.00 93 1013.4
20260510060059 48 204 0.0 2.0 0.00 0.36 0.00 93 1013.4
20260510055554 48 204 0.0 0.0 0.00 0.36 0.00 92 1013.5
20260510055054 48 203 0.0 0.0 0.00 0.36 0.00 92 1013.4
20260510054601 48 202 0.0 0.0 0.00 0.36 0.00 92 1013.5
20260510054054 48 202 0.0 0.0 0.00 0.36 0.00 92 1013.4
20260510053555 48 205 0.0 0.0 0.00 0.36 0.00 92 1013.4
20260510053052 48 205 0.0 0.0 0.00 0.36 0.00 92 1013.4
20260510052552 48 205 0.0 0.0 0.00 0.36 0.00 92 1013.6
20260510052052 49 204 0.0 0.0 0.00 0.36 0.00 92 1013.7
20260510051552 49 204 0.0 0.0 0.00 0.36 0.00 92 1013.7
20260510051054 49 204 0.0 0.0 0.00 0.36 0.00 92 1013.8
20260510050550 49 205 0.0 0.0 0.00 0.36 0.00 92 1013.9
20260510050054 49 203 0.0 0.0 0.00 0.36 0.00 92 1013.6
20260510045552 49 203 0.0 0.0 0.00 0.36 0.00 92 1013.6
20260510045050 49 204 0.0 0.0 0.00 0.36 0.00 92 1013.6
20260510044553 50 204 0.0 0.0 0.00 0.36 0.00 92 1013.6
20260510044047 50 203 0.0 0.0 0.00 0.36 0.00 92 1013.4
20260510043546 50 205 0.0 0.0 0.00 0.36 0.00 92 1013.4
20260510043046 50 202 0.0 0.0 0.00 0.36 0.00 92 1013.5
20260510042544 50 202 0.0 1.0 0.00 0.36 0.00 92 1013.5
20260510042044 50 203 0.0 2.0 0.00 0.36 0.00 92 1013.7
20260510041549 50 204 0.0 2.0 0.00 0.36 0.00 92 1013.8
20260510041042 50 202 0.0 2.0 0.00 0.36 0.00 92 1013.7
20260510040542 51 202 0.0 2.0 0.00 0.36 0.00 92 1013.8
20260510040039 51 202 0.0 4.0 0.00 0.36 0.00 92 1013.7
20260510035538 51 202 0.0 4.0 0.00 0.36 0.36 92 1013.7
20260510035041 51 200 1.0 3.0 0.00 0.36 0.36 92 1013.7
20260510034539 51 195 0.0 2.0 0.00 0.36 0.36 92 1013.6
20260510034038 51 194 0.0 2.0 0.00 0.36 0.36 92 1013.4
20260510033537 51 194 0.0 2.0 0.00 0.36 0.36 92 1013.6
20260510033048 51 196 0.0 2.0 0.00 0.36 0.36 92 1013.6
20260510032540 51 199 0.0 1.0 0.00 0.36 0.36 92 1013.8
20260510032038 51 198 0.0 1.0 0.00 0.36 0.36 92 1013.9
20260510031539 51 197 0.0 1.0 0.00 0.36 0.36 92 1014.0
20260510031037 51 197 0.0 1.0 0.00 0.36 0.36 92 1013.9
20260510030536 51 198 0.0 0.0 0.00 0.36 0.36 92 1013.9
20260510030036 51 198 0.0 0.0 0.00 0.36 0.36 92 1013.8
20260510025536 51 199 0.0 0.0 0.00 0.36 0.36 92 1013.7
20260510025037 51 198 0.0 1.0 0.00 0.36 0.36 92 1013.6
20260510024539 51 198 0.0 1.0 0.00 0.36 0.36 92 1013.5
20260510024035 51 198 0.0 0.0 0.00 0.36 0.36 92 1013.6
20260510023535 51 198 0.0 0.0 0.00 0.36 0.36 92 1013.8
20260510023036 51 199 0.0 0.0 0.00 0.36 0.36 92 1013.7
20260510022536 51 199 0.0 1.0 0.00 0.36 0.36 92 1013.7
20260510022036 51 198 0.0 1.0 0.00 0.36 0.36 92 1013.6
20260510021539 51 198 0.0 1.0 0.00 0.36 0.36 92 1013.5
20260510021035 51 199 0.0 1.0 0.00 0.36 0.36 92 1013.4
20260510020534 51 198 0.0 0.0 0.00 0.36 0.36 92 1013.7
20260510020036 51 200 0.0 0.0 0.00 0.36 0.36 92 1013.9
20260510015534 51 199 0.0 0.0 0.00 0.36 0.36 92 1014.2
20260510015036 51 198 0.0 1.0 0.00 0.36 0.36 92 1014.1
20260510014535 51 198 0.0 1.0 0.00 0.36 0.36 92 1014.2
20260510014034 51 199 0.0 1.0 0.00 0.36 0.36 92 1014.3
20260510013534 51 200 0.0 1.0 0.00 0.36 0.36 92 1014.3
20260510013039 51 198 0.0 0.0 0.00 0.36 0.36 92 1014.3
20260510012535 51 198 0.0 3.0 0.00 0.36 0.36 92 1014.3
20260510012033 51 198 1.0 3.0 0.00 0.36 0.36 92 1014.2
20260510011534 51 195 1.0 3.0 0.00 0.36 0.36 91 1014.2
20260510011031 51 196 0.0 2.0 0.00 0.36 0.36 91 1014.0
20260510010528 51 194 0.0 2.0 0.00 0.36 0.36 91 1013.8
20260510010027 51 194 0.0 0.0 0.00 0.36 0.36 91 1013.7
20260510005526 51 195 0.0 0.0 0.00 0.36 0.36 91 1013.6
20260510005025 51 195 0.0 0.0 0.00 0.36 0.36 91 1013.6
20260510004523 51 195 0.0 0.0 0.00 0.36 0.36 91 1013.5
20260510004022 50 195 0.0 0.0 0.00 0.36 0.36 91 1013.5
20260510003523 50 194 0.0 0.0 0.00 0.36 0.36 91 1013.6
20260510003021 50 194 0.0 1.0 0.00 0.36 0.36 91 1013.5
20260510002519 51 193 0.0 2.0 0.00 0.36 0.36 91 1013.4
20260510002018 51 192 0.0 2.0 0.00 0.36 0.36 91 1013.3
20260510001523 51 191 1.0 3.0 0.00 0.36 0.36 91 1013.2
20260510001018 51 193 1.0 3.0 0.00 0.36 0.36 91 1013.2
20260510000514 51 193 0.0 2.0 0.00 0.36 0.36 91 1013.2
20260510000113 50 193 0.0 1.0 0.00 0.36 0.36 91 1013.3
20260509235512 50 194 0.0 1.0 0.00 0.36 0.36 91 1013.3
20260509235014 50 193 0.0 2.0 0.00 0.36 0.36 91 1013.2
20260509234514 50 194 0.0 2.0 0.00 0.36 0.36 91 1013.2
20260509234013 50 193 0.0 2.0 0.00 0.36 0.36 91 1013.3
20260509233511 50 194 0.0 2.0 0.00 0.36 0.36 91 1013.3
20260509233011 50 194 0.0 4.0 0.00 0.36 0.36 91 1013.3
20260509232512 50 193 1.0 4.0 0.00 0.36 0.36 91 1013.4
20260509232012 50 183 0.0 3.0 0.01 0.36 0.36 91 1013.4
20260509231511 50 184 1.0 3.0 0.01 0.36 0.36 91 1013.3
20260509231012 50 176 0.0 5.0 0.02 0.36 0.36 91 1013.1
20260509230508 50 175 2.0 5.0 0.02 0.36 0.36 91 1013.1
20260509230008 50 205 0.0 2.0 0.03 0.36 0.36 90 1013.2
20260509225506 50 205 0.0 2.0 0.04 0.36 0.36 90 1013.2
20260509225005 50 205 0.0 2.0 0.05 0.36 0.36 90 1013.3
20260509224503 50 203 0.0 1.0 0.06 0.36 0.36 90 1013.3
20260509224002 50 203 0.0 2.0 0.06 0.36 0.36 90 1013.3
20260509223601 50 203 0.0 2.0 0.07 0.36 0.36 90 1013.1
20260509223101 50 203 0.0 2.0 0.07 0.36 0.36 90 1013.1
20260509222559 49 203 0.0 2.0 0.08 0.36 0.36 90 1013.3
20260509222058 49 204 0.0 0.0 0.07 0.35 0.35 90 1013.4
20260509221558 49 203 0.0 1.0 0.08 0.35 0.35 90 1013.4
20260509221058 49 203 0.0 2.0 0.07 0.34 0.34 90 1013.3
20260509220556 49 204 0.0 2.0 0.07 0.34 0.34 90 1013.3
20260509215556 49 202 1.0 4.0 0.06 0.32 0.32 90 1013.3
20260509215056 49 99 0.0 2.0 0.05 0.31 0.31 90 1013.1
20260509214556 49 99 0.0 2.0 0.04 0.30 0.30 90 1013.1
20260509214054 49 98 0.0 3.0 0.05 0.30 0.30 90 1013.3
20260509213554 49 96 0.0 3.0 0.04 0.28 0.28 90 1013.4
20260509213055 49 93 0.0 2.0 0.05 0.28 0.28 90 1013.6
20260509212552 49 92 0.0 2.0 0.04 0.28 0.28 90 1013.5
20260509212051 49 94 0.0 3.0 0.05 0.28 0.28 90 1013.6
20260509211554 49 92 0.0 3.0 0.04 0.27 0.27 89 1013.7
20260509211051 49 94 0.0 3.0 0.05 0.27 0.27 89 1013.7
20260509210551 49 94 0.0 3.0 0.05 0.27 0.27 89 1013.9
20260509210051 49 91 0.0 3.0 0.05 0.27 0.27 89 1013.9
20260509205549 49 93 0.0 2.0 0.04 0.26 0.26 89 1014.1
20260509205048 49 92 0.0 3.0 0.05 0.26 0.26 89 1014.0
20260509204557 49 92 1.0 3.0 0.06 0.26 0.26 89 1014.0
20260509204048 49 93 0.0 2.0 0.06 0.25 0.25 89 1014.1
20260509203548 49 91 0.0 2.0 0.07 0.25 0.25 89 1014.1
20260509203047 49 92 0.0 2.0 0.06 0.24 0.24 89 1014.1
20260509202550 49 92 0.0 3.0 0.07 0.24 0.24 89 1014.3
20260509202047 49 90 0.0 3.0 0.06 0.23 0.23 89 1014.2
20260509201547 49 92 1.0 3.0 0.06 0.23 0.23 89 1014.3
20260509201046 49 91 1.0 3.0 0.05 0.22 0.22 89 1014.3
20260509200546 49 88 1.0 3.0 0.05 0.22 0.22 89 1014.3
20260509200046 49 88 1.0 4.0 0.05 0.22 0.22 89 1014.3
20260509195546 49 86 0.0 4.0 0.05 0.22 0.22 88 1014.3
20260509195049 49 139 1.0 3.0 0.04 0.21 0.21 88 1014.5
20260509194546 49 140 0.0 3.0 0.03 0.20 0.20 88 1014.6
20260509194044 49 140 1.0 3.0 0.02 0.19 0.19 88 1014.6
20260509193544 49 140 0.0 3.0 0.01 0.18 0.18 88 1014.6
20260509193045 49 140 1.0 5.0 0.01 0.18 0.18 88 1014.4
20260509192548 49 143 2.0 5.0 0.00 0.17 0.17 88 1014.4
20260509192043 49 138 1.0 4.0 0.00 0.17 0.17 88 1014.4
20260509191549 49 140 1.0 4.0 0.00 0.17 0.17 88 1014.5
20260509191051 49 86 1.0 4.0 0.00 0.17 0.17 88 1014.4
20260509190542 49 90 1.0 4.0 0.00 0.17 0.17 88 1014.4
20260509190044 49 91 1.0 4.0 0.00 0.17 0.17 88 1014.4
20260509185542 49 94 1.0 3.0 0.00 0.17 0.17 88 1014.5
20260509185042 49 90 1.0 3.0 0.01 0.17 0.17 88 1014.5
20260509184540 49 95 0.0 3.0 0.01 0.17 0.17 88 1014.6
20260509184039 49 96 0.0 3.0 0.01 0.17 0.17 88 1014.4
20260509183537 49 94 1.0 4.0 0.01 0.17 0.17 88 1014.4
20260509183036 49 95 2.0 4.0 0.01 0.17 0.17 88 1014.4
20260509182534 49 92 2.0 4.0 0.01 0.17 0.17 88 1014.4
20260509182034 48 83 2.0 6.0 0.01 0.17 0.17 88 1014.5
20260509181534 48 86 1.0 6.0 0.01 0.17 0.17 87 1014.5
20260509181035 49 69 2.0 4.0 0.01 0.17 0.17 88 1014.5
20260509180535 48 66 1.0 5.0 0.01 0.17 0.17 87 1014.6
20260509180032 49 67 2.0 5.0 0.01 0.17 0.17 87 1014.7
20260509175532 49 136 2.0 5.0 0.01 0.17 0.17 88 1014.7
20260509175035 48 82 2.0 4.0 0.01 0.16 0.16 88 1014.6